RH
68 71 72 74 73 76 79 84 90 86 82 86 84 81 78 94 95 98 97 96 86 78 67 59 60 54 53 54 53 47 43 42 41 42 48 53 53 52
85 92 95 93 91 92 92 90 87 82 72 80 85 82 93 95 97 97 96 97 88 84 78 70 68 64 63 56 56 56 51 45 42 40 39 40 46 51
90 96 97 98 98 98 98 95 89 86 78 71 74 83 86 90 92 93 94 94 91 82 77 69 65 67 67 65 60 57 57 53 47 43 40 37 35 38
82 84 83 85 89 93 95 96 94 91 87 78 71 69 75 83 86 89 91 91 93 85 78 76 69 65 62 58 54 58 56 55 52 47 43 38 36 33
42 39 39 56 59 64 64 74 83 89 89 86 82 76 70 71 74 80 85 88 87 87 79 73 69 65 66 61 53 47 49 50 49 49 45 41 39 36
33 29 34 44 55 65 63 59 59 69 76 74 72 70 67 64 62 62 65 72 75 78 74 72 68 65 61 60 55 47 40 40 44 45 44 41 39 37
45 43 42 43 47 54 56 61 57 48 51 58 62 65 64 65 69 77 79 78 74 75 73 65 67 69 65 59 56 54 45 38 32 31 35 38 38 36
64 60 56 53 54 63 64 59 55 51 44 47 49 54 59 61 64 68 71 71 71 67 64 59 63 57 56 61 61 62 55 46 38 35 29 27 28 31
69 68 68 71 76 75 71 63 60 54 53 53 55 50 48 46 49 52 54 58 61 63 59 56 57 57 60 62 67 62 57 55 49 41 35 33 29 25
77 75 74 72 76 80 72 62 59 58 55 52 52 45 50 48 49 46 46 46 46 49 58 64 62 60 61 59 60 60 60 56 55 54 47 41 35 28
90 94 93 83 76 78 70 61 54 50 49 50 51 52 54 54 53 54 54 62 64 69 73 73 70 66 64 59 56 54 55 54 52 50 51 52 45 38
95 94 91 90 90 86 77 70 63 59 57 53 55 57 61 66 72 78 84 84 83 82 86 87 82 81 74 66 63 61 58 57 54 51 48 46 45 43
97 95 90 87 83 79 75 70 65 61 61 64 68 72 75 81 85 84 85 88 90 87 91 94 89 91 87 84 76 72 69 68 67 66 61 55 48 45
99 99 99 99 96 90 87 84 81 80 80 81 83 86 89 87 87 89 90 92 93 94 95 96 92 94 93 90 90 89 86 81 80 75 71 67 58 51
99 99 99 99 99 99 97 90 88 88 90 91 89 88 88 86 85 86 86 87 90 93 97 98 98 95 95 92 92 92 91 89 85 81 79 76 69 56
99 99 99 99 99 99 99 99 98 95 90 88 85 84 83 83 82 81 82 82 83 84 89 93 96 98 95 94 95 95 94 91 90 92 89 80 75 66
99 99 98 98 98 99 98 94 90 86 84 82 82 81 81 81 80 79 76 70 66 67 68 73 83 97 97 96 96 95 92 91 90 91 90 91 88 83
99 98 98 98 98 99 94 88 85 83 80 79 79 78 79 79 78 74 71 70 73 73 77 79 80 79 89 95 93 89 91 92 91 91 91 89 96 93
99 99 98 86 82 91 98 92 88 85 82 80 78 76 76 75 72 69 67 70 74 75 77 79 82 84 88 94 96 97 94 93 92 91 93 93 92 97
99 99 92 78 69 65 64 70 78 87 87 83 79 78 77 74 72 69 68 70 71 72 74 75 78 80 85 89 95 96 98 98 98 98 98 96 96 97
91 95 85 79 76 73 68 66 65 59 71 81 80 78 78 76 75 72 69 68 69 69 69 71 73 77 80 83 86 88 93 97 97 97 98 98 98 98
80 82 88 82 75 70 64 63 60 56 55 58 69 75 73 75 77 76 76 74 72 71 69 67 67 70 72 72 75 79 83 83 85 90 93 96 96 96
74 74 78 76 74 72 67 60 56 51 50 49 49 54 60 67 70 70 70 70 71 73 74 73 72 73 73 73 72 69 70 75 78 80 82 83 86 89